CW0566 Weather Reports


Display with metric or nautical units.
time (UTC)temp
F
wind
direction
speed
MPH
gust
MPH
rain 1hr
in
rain 24hr
in
rain mn
in
humidity
%
barometer
mb
20260904032017 76 0.0 1.0 0.00 0.62 0.62 90 1012.9
20260904031017 77 0.0 1.0 0.00 0.62 0.62 90 1012.9
20260904030018 77 0.0 1.0 0.00 0.62 0.62 90 1012.9
20260904025037 77 0.0 1.0 0.00 0.62 0.62 89 1013.0
20260904024017 78 0.0 0.0 0.00 0.62 0.62 89 1013.0
20260904023017 78 0.0 0.0 0.00 0.62 0.62 88 1012.8
20260904022057 78 0.0 0.0 0.00 0.62 0.62 87 1013.0
20260904021017 78 0.0 1.0 0.00 0.62 0.62 87 1012.9
20260904020017 78 248 1.0 3.0 0.00 0.62 0.62 87 1013.0
20260904015017 78 293 1.0 3.0 0.00 0.62 0.62 87 1013.2
20260904014017 78 315 1.0 4.0 0.00 0.62 0.62 87 1013.3
20260904013017 77 315 3.0 8.0 0.00 0.62 0.62 88 1013.5
20260904012017 77 293 2.0 5.0 0.00 0.62 0.62 89 1013.6
20260904011038 77 315 1.0 2.0 0.00 0.62 0.62 90 1013.7
20260904010017 77 315 1.0 4.0 0.00 0.62 0.62 90 1013.9
20260904005017 78 0.0 0.0 0.00 0.62 0.62 89 1013.6
20260904004017 78 0.0 0.0 0.00 0.62 0.62 88 1013.4
20260904003017 78 0.0 0.0 0.00 0.62 0.62 88 1013.4
20260904002037 79 0.0 0.0 0.00 0.62 0.62 87 1013.3
20260904001037 79 0.0 1.0 0.00 0.62 0.62 86 1013.2
20260904000057 80 0.0 0.0 0.00 0.62 0.62 85 1013.3
20260903235017 80 0.0 0.0 0.00 0.62 0.62 85 1013.2
20260903234017 80 315 1.0 3.0 0.00 0.62 0.62 84 1013.1
20260903233017 81 293 1.0 2.0 0.00 0.62 0.62 83 1013.1
20260903232056 81 293 1.0 4.0 0.00 0.62 0.62 83 1013.0
20260903231016 82 293 1.0 4.0 0.00 0.62 0.62 82 1012.9
20260903230057 82 270 3.0 8.0 0.00 0.62 0.62 81 1013.0
20260903225017 83 293 4.0 9.0 0.00 0.62 0.62 80 1012.9
20260903224017 83 270 2.0 5.0 0.00 0.62 0.62 82 1012.8
20260903223017 84 293 3.0 8.0 0.00 0.62 0.62 81 1012.9
20260903222037 84 315 3.0 10.0 0.00 0.62 0.62 81 1013.0
20260903221016 84 293 3.0 11.0 0.00 0.62 0.62 81 1012.9
20260903220017 84 293 5.0 8.0 0.00 0.62 0.62 80 1012.8
20260903215056 85 270 3.0 8.0 0.00 0.62 0.62 79 1012.7
20260903214017 85 293 4.0 9.0 0.00 0.62 0.62 79 1012.7
20260903213016 85 270 4.0 11.0 0.00 0.62 0.62 79 1012.9
20260903212016 85 270 4.0 10.0 0.00 0.62 0.62 79 1012.8
20260903211036 86 270 4.0 9.0 0.00 0.62 0.62 78 1012.8
20260903210017 86 293 4.0 10.0 0.00 0.62 0.62 78 1013.0
20260903205016 86 293 4.0 12.0 0.00 0.62 0.62 78 1012.9
20260903204016 86 315 5.0 9.0 0.00 0.62 0.62 79 1013.0
20260903203016 86 248 4.0 9.0 0.00 0.62 0.62 79 1013.0
20260903202016 86 315 6.0 12.0 0.00 0.62 0.62 79 1013.0
20260903201016 86 270 3.0 9.0 0.00 0.62 0.62 79 1013.1
20260903200016 86 293 5.0 11.0 0.00 0.62 0.62 79 1013.3
20260903195017 85 270 4.0 10.0 0.00 0.62 0.62 79 1013.4
20260903194037 85 270 4.0 10.0 0.00 0.62 0.62 80 1013.5
20260903193016 85 315 6.0 14.0 0.00 0.62 0.62 80 1013.7
20260903192016 85 270 4.0 11.0 0.00 0.62 0.62 81 1013.9
20260903191017 85 270 4.0 11.0 0.00 0.62 0.62 80 1014.0
20260903190036 85 293 4.0 11.0 0.00 0.63 0.62 79 1014.2
20260903185016 85 270 6.0 12.0 0.00 0.63 0.62 80 1014.2
20260903184016 85 293 4.0 9.0 0.00 0.63 0.62 81 1014.1
20260903183016 84 293 4.0 9.0 0.00 0.64 0.62 81 1014.3
20260903182037 85 270 4.0 8.0 0.00 0.66 0.62 82 1014.2
20260903181016 84 270 4.0 9.0 0.00 0.68 0.62 82 1014.2
20260903180016 84 293 3.0 8.0 0.00 0.68 0.62 83 1014.2
20260903175016 84 293 5.0 12.0 0.00 0.68 0.62 84 1014.2
20260903174016 83 315 3.0 8.0 0.00 0.68 0.62 85 1014.2
20260903173056 83 293 6.0 15.0 0.00 0.68 0.62 84 1014.5
20260903172016 83 315 5.0 12.0 0.00 0.68 0.62 87 1014.9
20260903171016 81 293 6.0 13.0 0.00 0.68 0.62 86 1015.2
20260903170016 82 315 7.0 16.0 0.00 0.68 0.62 83 1015.4
20260903165036 83 315 5.0 11.0 0.00 0.68 0.62 84 1015.4
20260903164016 82 315 5.0 12.0 0.00 0.68 0.62 85 1015.5
20260903163036 83 315 6.0 15.0 0.00 0.68 0.62 85 1015.7
20260903162016 83 293 5.0 10.0 0.00 0.68 0.62 84 1015.7
20260903161016 83 293 4.0 15.0 0.00 0.68 0.62 88 1015.7
20260903160016 81 315 5.0 16.0 0.00 0.68 0.62 87 1015.9
20260903155015 81 270 4.0 10.0 0.00 0.68 0.62 87 1016.0
20260903154015 81 293 4.0 10.0 0.00 0.68 0.62 87 1015.8
20260903153016 81 270 4.0 11.0 0.00 0.68 0.62 88 1016.1
20260903152015 81 315 4.0 9.0 0.00 0.68 0.62 88 1015.9
20260903151036 81 248 2.0 5.0 0.00 0.68 0.62 90 1015.8
20260903150016 80 315 3.0 8.0 0.00 0.68 0.62 90 1015.8
20260903145036 79 315 4.0 9.0 0.00 0.68 0.62 90 1015.7
20260903144015 79 270 4.0 10.0 0.00 0.68 0.62 91 1015.8
20260903143015 79 270 2.0 6.0 0.00 0.68 0.62 92 1015.8
20260903142035 78 315 4.0 8.0 0.00 0.68 0.62 92 1015.7
20260903141036 78 315 3.0 6.0 0.00 0.68 0.62 93 1015.8
20260903140016 77 315 4.0 10.0 0.00 0.68 0.62 96 1015.7
20260903135015 77 248 3.0 6.0 0.00 0.68 0.62 98 1015.4
20260903134036 75 315 2.0 8.0 0.00 0.68 0.62 98 1015.0
20260903133035 74 315 2.0 6.0 0.00 0.68 0.62 99 1014.9
20260903132015 74 315 2.0 5.0 0.00 0.68 0.62 99 1015.2
20260903131018 73 293 2.0 8.0 0.00 0.68 0.62 99 1015.3
20260903130017 73 315 3.0 5.0 0.00 0.68 0.62 99 1015.6
20260903125017 73 270 1.0 5.0 0.01 0.68 0.62 99 1015.1
20260903124017 72 293 5.0 12.0 0.01 0.68 0.62 99 1015.1
20260903123017 72 315 3.0 10.0 0.01 0.68 0.62 99 1015.4
20260903122017 71 270 2.0 5.0 0.01 0.68 0.62 99 1015.3
20260903121017 71 248 2.0 7.0 0.01 0.68 0.62 99 1015.9
20260903120017 72 315 1.0 5.0 0.01 0.68 0.62 99 1016.9
20260903115037 71 315 3.0 5.0 0.00 0.67 0.61 99 1017.2
20260903114017 71 293 1.0 3.0 0.00 0.67 0.61 99 1017.0
20260903113017 71 293 2.0 4.0 0.00 0.67 0.61 99 1017.2
20260903112017 71 293 1.0 3.0 0.00 0.67 0.61 99 1017.1
20260903111017 71 270 1.0 2.0 0.00 0.67 0.61 99 1017.1
20260903110017 71 293 1.0 3.0 0.00 0.67 0.61 99 1017.1
20260903105057 71 293 1.0 4.0 0.00 0.67 0.61 99 1016.6
20260903104017 71 270 1.0 3.0 0.00 0.67 0.61 98 1016.7
20260903103017 71 225 1.0 3.0 0.00 0.67 0.61 98 1016.7
20260903102017 71 0.0 1.0 0.01 0.67 0.61 98 1016.8
20260903101017 71 225 1.0 3.0 0.02 0.67 0.61 98 1017.1
20260903100017 71 0.0 1.0 0.05 0.67 0.61 98 1017.0
20260903095017 71 0.0 2.0 0.05 0.67 0.61 98 1017.0
20260903094037 71 203 1.0 4.0 0.05 0.67 0.61 98 1017.2
20260903093017 71 135 1.0 2.0 0.05 0.67 0.61 98 1017.6
20260903092017 71 135 1.0 2.0 0.04 0.66 0.60 98 1017.7
20260903091017 71 135 2.0 4.0 0.03 0.65 0.59 98 1017.7
20260903090017 71 23 3.0 8.0 0.00 0.62 0.56 98 1018.5
20260903085037 71 135 3.0 12.0 0.00 0.62 0.56 98 1018.7
20260903084017 71 0.0 0.0 0.00 0.62 0.56 98 1017.0
20260903083017 71 0.0 0.0 0.01 0.62 0.56 98 1016.6
20260903082017 71 0.0 0.0 0.01 0.62 0.56 98 1016.7
20260903081017 71 0.0 0.0 0.01 0.62 0.56 98 1016.9
20260903080017 71 0.0 2.0 0.01 0.62 0.56 98 1016.8
20260903075017 71 0.0 0.0 0.01 0.62 0.56 98 1016.9
20260903074016 71 0.0 1.0 0.02 0.62 0.56 98 1016.8
20260903073017 71 0.0 1.0 0.03 0.61 0.55 98 1016.9
20260903072017 71 0.0 2.0 0.09 0.61 0.55 98 1017.0
20260903071017 71 158 1.0 3.0 0.14 0.61 0.55 98 1017.0
20260903070037 71 135 3.0 8.0 0.48 0.61 0.55 98 1016.9
20260903065017 71 158 3.0 7.0 0.55 0.61 0.55 98 1016.8
20260903064017 71 158 3.0 4.0 0.54 0.60 0.54 98 1017.3
20260903063016 71 180 3.0 6.0 0.52 0.58 0.52 98 1017.1
20260903062036 71 113 1.0 4.0 0.46 0.52 0.46 97 1018.2
20260903061016 71 23 2.0 7.0 0.41 0.47 0.41 97 1018.4
20260903055516 72 135 1.0 2.0 0.00 0.06 0.00 97 1018.6
20260903054516 71 0.0 2.0 0.00 0.06 0.00 97 1017.5
20260903053517 71 158 1.0 2.0 0.00 0.06 0.00 97 1017.2
20260903052516 71 158 1.0 3.0 0.00 0.06 0.00 97 1017.5
20260903051516 71 158 1.0 3.0 0.00 0.06 0.00 97 1017.3
20260903050516 71 0.0 2.0 0.00 0.06 0.00 97 1017.2
20260903045516 71 158 1.0 4.0 0.00 0.06 0.00 97 1017.3
20260903044516 71 180 1.0 3.0 0.00 0.06 0.00 96 1017.5
20260903043516 71 0.0 1.0 0.00 0.06 0.00 96 1017.5
20260903042517 72 0.0 2.0 0.00 0.06 0.00 96 1017.7
20260903041516 72 0.0 1.0 0.00 0.06 0.00 96 1018.0
20260903040536 72 0.0 1.0 0.00 0.06 0.00 96 1018.0
20260903035517 72 0.0 2.0 0.00 0.06 0.06 96 1018.1
20260903034517 72 0.0 0.0 0.00 0.06 0.06 96 1018.0
20260903033517 72 0.0 2.0 0.00 0.06 0.06 96 1018.1